Weather History for Bacau, Romania

Change the Weather History Date:

Tuesday, October 22, 2013

  Actual Average Record
Temperature  
Mean Temperature 58 °F -  
Max Temperature 75 °F - - ()
Min Temperature 40 °F - - ()
Degree Days  
Heating Degree Days 8    
Growing Degree Days 8 (Base 50)    
Moisture  
Dew Point 49 °F    
Average Humidity 74    
Maximum Humidity 100    
Minimum Humidity 26    
Precipitation  
Precipitation 0.00 in - - ()
Sea Level Pressure  
Sea Level Pressure 30.19 in    
Wind  
Wind Speed 2 mph ()    
Max Wind Speed 7 mph    
Max Gust Speed -    
Visibility 4.4 miles    
Events      
T = Trace of Precipitation, MM = Missing Value Source: Averaged Metar Reports

Daily Weather History Graph

Daily Weather History Graph

Search for Another Location

Airport:

Trip Planner

Search our weather history database for the weather conditions in past years. The results will help you decide how hot, cold, wet, or windy it might be!

Date:

Astronomy

Oct. 22, 2013 Rise Set
Actual Time 7:39 AM EEST 6:13 PM EEST
Civil Twilight 7:08 AM EEST 6:44 PM EEST
Nautical Twilight 6:33 AM EEST 7:19 PM EEST
Astronomical Twilight 5:58 AM EEST 7:54 PM EEST
Moon 8:28 PM EEST (10/22) 11:00 AM EEST (10/22)
Length of Visible Light 11h 35m
Length of Day
10h 33m
Waning Gibbous, 89% of the Moon is Illuminated
Oct 22
Waning Gibbous
Oct 27
Last Quarter
Nov 3
New
Nov 10
First Quarter
Nov 17
Full

Hourly Weather History & Observations

Time (EEST) Temp. Windchill Dew Point Humidity Pressure Visibility Wind Dir Wind Speed Gust Speed Precip Events Conditions
12:00 AM 50 °F - 48 °F 91% 30.14 in 6 mi West 2.2 mph - -   Partly Cloudy
12:00 AM 55.4 °F - 50.0 °F 82% 30.12 in 3.1 mi Variable 2.3 mph - N/A   Mist
1:00 AM 49 °F - 48 °F 94% 30.15 in 6 mi WNW 2.2 mph - -   Scattered Clouds
1:00 AM 55.4 °F - 51.8 °F 88% 30.12 in - NE 6.9 mph - N/A   Mist
2:00 AM 50.0 °F - 48.2 °F 94% 30.15 in 3.1 mi NNW 4.6 mph - N/A   Mist
3:00 AM 46 °F - 45 °F 96% 30.17 in 2 mi Calm Calm - -   Mist
3:00 AM 46.4 °F - 46.4 °F 100% 30.15 in 3.1 mi Variable 2.3 mph - N/A   Mist
4:00 AM 44 °F - 44 °F 100% 30.17 in - Calm Calm - -  
4:00 AM 50.0 °F - 48.2 °F 94% 30.15 in 4.3 mi North 4.6 mph - N/A   Unknown
5:00 AM 42 °F - 42 °F 100% 30.19 in - Calm Calm - -  
5:00 AM 48.2 °F - 48.2 °F 100% 30.15 in - Variable 2.3 mph - N/A   Mist
5:30 AM 46.4 °F 44.3 °F 44.6 °F 93% 30.18 in 3.1 mi NNW 4.6 mph - N/A   Mist
6:00 AM 42 °F - 42 °F 100% 30.19 in - WNW 2.2 mph - -  
6:00 AM 44.6 °F - 44.6 °F 100% 30.18 in 5.0 mi Variable 2.3 mph - N/A   Unknown
6:30 AM 42.8 °F - 42.8 °F 100% 30.18 in 5.0 mi Calm Calm - N/A   Unknown
7:00 AM 41 °F - 41 °F 100% 30.20 in - Calm Calm - -  
7:00 AM 46.4 °F - 44.6 °F 93% 30.18 in 3.1 mi WNW 2.3 mph - N/A   Mist
7:30 AM 44.6 °F - 42.8 °F 93% 30.18 in 3.7 mi Variable 2.3 mph - N/A   Unknown
8:00 AM 42 °F - 42 °F 99% 30.21 in 2 mi Calm Calm - -   Mist
8:00 AM 46.4 °F - 44.6 °F 93% 30.18 in 3.7 mi NW 2.3 mph - N/A   Unknown
8:30 AM 48.2 °F - 46.4 °F 93% 30.21 in 4.3 mi Variable 2.3 mph - N/A   Unknown
9:00 AM 44 °F - 44 °F 97% 30.22 in 2 mi Calm Calm - -   Mist
9:00 AM 50.0 °F - 50.0 °F 100% 30.21 in 5.0 mi Variable 2.3 mph - N/A   Unknown
9:30 AM 53.6 °F - 50.0 °F 88% 30.21 in 3.7 mi Variable 2.3 mph - N/A   Unknown
10:00 AM 49 °F - 49 °F 99% 30.23 in 2 mi NNW 2.2 mph - -   Mist
10:00 AM 55.4 °F - 51.8 °F 88% 30.21 in 3.7 mi NNW 2.3 mph - N/A   Unknown
10:30 AM 59.0 °F - 51.8 °F 77% 30.21 in 3.7 mi Variable 2.3 mph - N/A   Unknown
11:00 AM 60 °F - 50 °F 61% 30.22 in 2 mi North 2.2 mph - -   Mist
11:00 AM 59.0 °F - 53.6 °F 82% 30.21 in 3.7 mi Variable 2.3 mph - N/A   Unknown
11:30 AM 62.6 °F - 53.6 °F 72% 30.21 in 3.7 mi Variable 2.3 mph - N/A   Unknown
12:00 PM 64 °F - 50 °F 51% 30.21 in 6 mi North 2.2 mph - -   Clear
12:00 PM 66.2 °F - 53.6 °F 64% 30.21 in 3.7 mi Variable 2.3 mph - N/A   Unknown
12:30 PM 68.0 °F - 53.6 °F 60% 30.21 in 4.3 mi Variable 2.3 mph - N/A   Unknown
1:00 PM 69 °F - 49 °F 38% 30.20 in 6 mi NNW 2.2 mph - -   Clear
1:00 PM 69.8 °F - 51.8 °F 53% 30.21 in 5.0 mi Variable 2.3 mph - N/A   Unknown
1:30 PM 71.6 °F - 50.0 °F 46% 30.18 in - North 4.6 mph - N/A   Clear
2:00 PM 72 °F - 47 °F 29% 30.18 in 6 mi South 2.2 mph - -  
2:00 PM 71.6 °F - 50.0 °F 46% 30.18 in - Variable 2.3 mph - N/A   Clear
2:30 PM 73.4 °F - 51.8 °F 47% 30.18 in - Variable 2.3 mph - N/A   Clear
3:00 PM 75 °F - 47 °F 26% 30.17 in 6 mi Calm Calm - -   Scattered Clouds
3:00 PM 73.4 °F - 50.0 °F 44% 30.18 in - Variable 2.3 mph - N/A   Clear
3:30 PM 73.4 °F - 51.8 °F 47% 30.18 in - Variable 2.3 mph - N/A   Clear
4:00 PM 74 °F - 47 °F 27% 30.16 in 6 mi SE 2.2 mph - -   Scattered Clouds
4:00 PM 73.4 °F - 51.8 °F 47% 30.18 in - Variable 2.3 mph - N/A   Clear
4:30 PM 73.4 °F - 51.8 °F 47% 30.18 in - Variable 2.3 mph - N/A   Clear
5:00 PM 71 °F - 47 °F 32% 30.16 in 6 mi ENE 2.2 mph - -   Scattered Clouds
5:00 PM 71.6 °F - 51.8 °F 50% 30.18 in - Variable 2.3 mph - N/A   Clear
5:30 PM 69.8 °F - 51.8 °F 53% 30.18 in - NE 2.3 mph - N/A   Clear
6:00 PM 67 °F - 50 °F 43% 30.17 in 6 mi ENE 2.2 mph - -   Scattered Clouds
6:00 PM 69.8 °F - 50.0 °F 49% 30.18 in - Variable 2.3 mph - N/A   Clear
6:30 PM 60.8 °F - 51.8 °F 72% 30.18 in - WNW 4.6 mph - N/A   Clear
7:00 PM 58 °F - 50 °F 66% 30.19 in 6 mi West 2.2 mph - -   Scattered Clouds
7:00 PM 62.6 °F - 51.8 °F 68% 30.21 in - Variable 2.3 mph - N/A   Clear
7:30 PM 59.0 °F - 51.8 °F 77% 30.21 in - WNW 4.6 mph - N/A   Clear
8:00 PM 54 °F - 50 °F 80% 30.22 in 6 mi WSW 2.2 mph - -   Scattered Clouds
8:00 PM 60.8 °F - 50.0 °F 68% 30.21 in - Variable 2.3 mph - N/A   Clear
8:30 PM 57.2 °F - 50.0 °F 77% 30.21 in - Variable 2.3 mph - N/A   Clear
9:00 PM 52 °F - 49 °F 85% 30.22 in 6 mi Calm Calm - -  
9:00 PM 55.4 °F - 50.0 °F 82% 30.21 in 5.0 mi Variable 2.3 mph - N/A   Unknown
10:00 PM 50 °F - 48 °F 89% 30.25 in 6 mi NW 2.2 mph - -  
10:00 PM 53.6 °F - 50.0 °F 88% 30.24 in - NW 4.6 mph - N/A   Clear
11:00 PM 49 °F - 47 °F 92% 30.26 in 6 mi NW 2.2 mph - -  
11:00 PM 55.4 °F - 50.0 °F 82% 30.24 in - Calm Calm - N/A   Clear